Temp
16 15 15 15 15 15 15 15 15 15 15 17 17 18 18 18 18 17 17 16 16 16 16 16 16 16 16 16 15 16 16 16 16
15 15 14 15 15 15 15 14 14 14 15 16 17 18 18 18 17 17 16 16 16 16 16 16 15 15 16 15 15 15 15 15 15
14 14 15 15 15 15 14 14 14 14 16 17 17 18 18 17 17 16 16 16 16 16 15 15 15 15 15 15 15 15 14 14 15
14 14 15 15 15 14 14 14 14 14 16 17 17 18 18 17 17 16 16 16 15 15 15 15 15 15 14 14 14 14 14 14 14
14 14 14 14 14 14 14 14 14 16 16 17 18 18 18 17 17 16 15 15 15 15 14 14 14 14 14 14 14 14 14 14 14
14 14 14 14 14 14 13 13 15 15 16 17 17 18 18 17 16 15 15 15 14 14 14 14 14 14 14 14 14 13 13 14 13
14 14 14 14 14 13 15 15 15 16 16 17 17 17 17 16 15 15 15 14 14 14 13 14 14 14 13 13 14 13 13 13 13
14 14 14 14 14 15 15 15 16 16 16 16 17 17 16 16 15 15 15 15 14 13 14 14 13 13 13 13 13 13 13 13 13
14 14 14 14 14 15 16 16 16 17 16 16 16 17 16 15 14 15 14 14 14 14 14 13 13 13 13 13 13 13 13 12 13
15 14 14 14 15 16 16 16 17 17 16 16 15 16 15 15 14 14 14 14 14 14 13 14 13 13 13 13 13 12 12 13 12
16 15 15 16 15 16 16 16 17 17 16 16 15 15 15 14 14 14 14 14 14 13 13 13 13 13 13 13 13 12 12 12 12
16 16 16 16 16 16 16 16 16 16 16 15 15 16 14 14 14 15 15 14 13 12 12 13 13 13 12 13 12 12 12 12 12
16 16 16 16 16 16 16 16 16 16 15 15 15 15 15 14 14 15 14 13 12 12 11 11 12 12 12 12 12 12 12 11 12
16 16 16 16 16 16 16 16 15 15 15 15 15 15 15 14 14 14 13 12 12 11 11 11 10 10 11 12 12 12 11 11 11
16 15 15 15 15 15 15 15 15 15 15 14 14 14 14 14 13 13 13 12 12 12 11 11 11 11 10 10 11 11 12 11 11
15 15 15 15 15 15 15 15 15 15 15 14 13 13 13 13 13 13 12 12 12 12 11 11 11 10 11 10 10 10 11 11 11
15 15 14 14 15 15 15 15 15 14 14 13 12 9 12 12 12 12 12 12 12 11 11 11 10 10 10 10 10 10 10 11 11
15 15 14 14 14 15 15 15 14 13 14 13 14 10 9 11 12 12 12 12 11 11 11 11 10 10 10 10 10 10 10 11 10
15 15 14 14 14 15 14 14 14 14 13 13 14 14 13 9 9 12 12 12 11 11 11 10 10 10 9 9 10 10 10 10 10
14 14 14 14 14 14 14 14 14 14 13 13 14 14 14 14 10 8 11 12 12 11 11 10 10 9 9 9 9 9 9 10 9
Height
808 810 812 814 817 820 821 823 824 824 826 828 830 832 834 835 836 836 837 838 839 840 841 841 842 842 842 842 842 841 841 841 841
808 810 813 815 817 820 822 824 825 827 828 830 832 834 836 837 837 839 839 840 843 843 843 845 845 845 845 845 845 845 845 844 843
809 811 814 817 818 820 823 825 827 828 830 832 834 835 836 837 839 840 841 844 845 846 847 848 848 848 848 848 848 848 847 846 846
810 812 815 817 819 821 824 826 828 829 831 834 835 837 838 839 840 843 845 847 848 849 851 852 852 852 852 851 851 850 849 849 848
810 813 816 818 820 822 825 827 829 831 832 836 837 839 840 841 842 845 848 848 851 852 853 854 855 855 855 854 854 852 852 851 850
810 814 816 819 821 823 825 828 830 833 835 836 839 839 841 843 845 847 850 852 853 855 856 858 858 858 858 857 856 855 854 853 852
809 813 816 820 823 824 825 829 832 835 837 838 840 841 843 845 847 850 851 854 856 857 859 860 860 860 860 859 859 858 857 855 855
808 812 815 819 823 824 827 830 833 836 838 840 841 843 845 848 851 853 853 857 858 860 862 862 863 863 862 861 861 860 858 858 857
808 813 816 819 822 825 828 830 834 837 839 842 842 844 847 850 853 856 857 858 860 862 864 864 865 865 864 864 863 861 860 860 860
807 813 816 820 823 826 828 831 834 838 839 841 845 848 850 852 855 858 860 861 863 865 866 866 866 867 866 866 866 864 863 862 861
806 812 816 820 824 826 830 832 835 837 840 842 846 849 852 854 857 859 862 863 865 866 868 868 867 868 869 868 868 867 865 864 864
804 810 814 819 823 826 830 833 835 838 842 844 848 852 855 857 859 861 863 865 867 867 869 869 869 870 870 870 870 869 868 868 867
803 808 813 818 821 826 830 833 836 839 843 846 849 853 856 860 861 863 864 865 866 867 869 870 871 871 872 872 871 871 871 869 869
802 807 812 816 821 825 829 833 835 839 843 848 850 853 856 860 862 864 866 865 866 867 869 870 871 872 873 874 873 873 872 872 871
800 807 811 815 820 824 829 833 836 839 842 848 852 855 858 860 863 864 866 866 867 868 868 869 871 872 873 874 874 874 874 874 873
798 804 809 814 818 822 827 831 835 839 842 846 852 856 858 860 863 865 866 867 867 868 869 869 870 870 871 873 874 875 875 875 875
796 800 807 812 817 822 824 828 833 837 839 844 849 858 861 860 862 864 865 866 867 869 870 870 871 871 872 873 873 874 875 875 876
793 799 805 810 815 818 822 826 830 832 838 840 840 852 855 857 861 862 863 865 866 868 869 869 870 871 872 872 873 874 874 875 876
790 796 802 807 812 816 819 824 828 829 832 837 836 839 839 851 861 861 862 863 865 867 868 869 871 871 872 874 874 874 874 875 875
789 793 798 803 808 812 815 819 824 827 828 831 833 838 839 840 848 857 858 861 863 865 867 867 869 870 870 871 873 873 874 874 874
Wind_Speed
16 14 15 15 15 15 15 16 15 15 14 17 21 16 19 19 16 20 19 19 19 20 20 20 20 21 21 20 20 20 20 20 21
16 16 15 16 17 16 16 16 15 15 17 21 17 15 18 19 21 19 20 20 19 19 22 24 23 22 21 20 20 20 21 21 21
17 17 18 18 18 18 17 16 16 16 20 21 18 20 21 18 17 21 19 17 22 23 22 19 17 17 18 17 17 16 19 20 19
18 19 19 18 19 19 17 17 17 19 23 21 20 22 19 18 21 19 17 23 22 20 19 17 18 17 17 18 18 17 17 17 18
19 20 19 18 19 19 18 18 19 23 24 25 23 23 20 23 19 17 23 23 20 19 20 18 17 18 17 17 18 19 18 17 17
21 20 20 19 20 19 19 19 24 26 23 19 15 13 23 19 18 25 22 21 18 19 18 16 16 15 15 16 17 18 19 17 17
21 21 21 20 20 19 21 24 25 23 20 19 17 24 25 19 23 23 21 19 18 18 18 16 16 16 14 15 17 19 18 19 18
20 22 23 22 19 22 26 25 21 15 17 18 17 18 19 20 25 21 21 19 18 18 16 15 15 15 14 18 17 18 18 19 18
21 21 22 22 19 24 18 14 15 14 18 18 18 18 19 25 23 21 21 21 19 17 15 15 15 14 18 16 16 17 19 18 19
22 21 21 23 18 19 14 18 19 18 22 17 17 18 22 24 25 23 21 20 18 15 15 14 14 13 13 14 16 17 16 17 17
22 24 21 19 21 17 19 20 19 20 19 19 21 22 25 24 24 21 18 12 11 14 13 13 12 12 13 13 13 14 15 16 15
23 23 22 22 21 21 20 19 21 20 20 21 19 21 20 17 15 12 8 6 9 13 12 11 11 11 12 12 12 12 12 13 14
24 23 22 22 22 22 23 23 22 22 21 21 19 17 14 13 11 8 6 5 10 11 12 11 11 10 10 10 11 11 12 13 12
22 24 23 22 24 24 23 22 23 23 21 19 18 16 14 11 11 11 12 11 8 9 8 9 10 10 9 8 9 9 10 10 12
23 23 24 25 24 25 24 23 23 23 24 21 18 14 13 11 12 10 12 9 6 9 9 8 6 6 8 8 8 8 9 9 11
24 24 26 25 26 26 25 25 26 25 23 24 18 13 12 10 11 11 11 11 9 6 7 4 5 5 6 7 7 8 7 7 8
25 26 28 27 27 27 27 27 26 27 29 18 15 3 3 7 10 11 11 12 11 11 10 8 5 3 3 6 5 7 8 8 9
27 26 28 27 28 29 29 30 28 28 26 31 7 3 4 12 11 13 12 14 12 11 10 9 8 5 3 3 5 8 10 9 9
28 27 29 29 28 29 30 30 28 29 28 30 13 3 14 3 2 13 14 13 13 13 12 10 10 8 5 3 5 10 10 7 7
30 29 30 31 30 30 31 32 30 30 32 24 23 12 9 11 5 3 11 16 14 15 13 12 11 9 6 5 5 10 10 6 6
Wind_Direction
139 136 131 127 123 120 118 116 113 108 109 113 115 111 99 99 88 83 82 78 82 82 82 79 77 72 72 73 68 65 63 63 60
142 137 133 128 125 123 120 115 112 113 117 120 112 104 102 101 98 90 92 90 88 84 81 74 70 67 67 62 62 61 59 59 55
142 137 134 132 127 124 121 116 115 115 121 117 104 100 101 94 95 101 93 96 89 78 73 70 71 68 65 63 62 58 56 55 54
141 137 135 132 128 126 122 118 117 117 119 115 100 101 102 97 96 99 97 89 83 78 73 69 68 67 65 62 61 56 56 57 53
142 139 137 132 130 126 123 121 120 118 121 118 115 109 103 107 113 103 95 86 83 80 76 71 70 69 68 64 62 62 59 60 57
140 142 138 134 133 128 124 126 123 120 118 113 92 107 115 113 108 101 96 87 82 79 78 74 70 68 70 68 63 64 58 60 57
150 144 139 137 138 130 124 125 124 116 114 108 90 101 110 116 114 106 95 89 86 83 81 77 72 69 73 69 66 61 60 59 56
152 147 143 141 146 129 123 126 124 122 117 102 112 115 117 112 112 107 101 97 91 86 79 78 74 77 71 74 63 61 64 59 56
155 147 150 145 145 139 124 129 142 134 129 131 123 125 121 120 114 112 111 107 96 89 81 76 77 80 77 69 65 68 66 65 61
151 155 152 151 153 146 138 142 139 137 133 131 134 133 126 125 120 115 110 103 97 90 82 77 80 80 73 70 70 69 70 69 67
160 158 160 161 160 156 149 145 145 136 120 122 128 133 131 128 126 122 115 99 98 97 85 82 82 81 78 77 72 71 71 69 67
163 161 164 161 162 155 151 147 139 137 130 127 138 136 128 126 127 136 149 144 122 110 94 88 86 83 79 79 75 69 69 66 62
161 165 162 162 160 159 156 151 146 139 140 136 140 144 133 128 122 130 129 126 149 129 114 100 91 89 87 83 78 69 67 66 62
166 163 163 164 161 161 158 157 151 145 142 141 139 145 143 143 145 150 131 149 138 143 143 123 115 95 81 85 79 71 73 67 64
168 166 167 165 164 161 162 160 156 152 146 142 138 142 145 145 152 153 158 134 133 127 127 123 118 103 100 77 78 77 73 68 62
169 171 170 170 169 168 168 163 160 154 151 136 125 124 138 151 165 163 164 164 151 138 162 116 112 102 112 123 107 78 66 83 65
173 175 175 175 172 175 171 168 160 161 159 148 120 121 136 178 179 177 182 177 179 169 168 151 123 144 116 101 125 123 64 98 78
177 181 180 179 179 180 178 176 172 166 170 167 142 147 180 151 194 193 184 184 188 185 185 185 175 196 167 141 116 139 101 110 84
180 185 186 184 185 185 185 184 183 176 180 188 203 155 134 166 160 204 200 194 193 191 186 187 175 187 203 192 131 136 107 110 98
186 192 190 189 190 192 188 188 190 192 189 194 196 203 165 155 139 163 185 194 198 193 193 193 190 195 197 191 159 155 124 130 118